カタログに戻る

KUIPER-00490

運用中通信LEO
NORAD 69595·PAYLOAD·🇺🇸 United States

打ち上げ Jun 17, 2026 から Guiana Space Centre

Loading…

次のパス (今後24時間)

TLE

最新Source: CelesTrak SupGP

元期: Sep 14, 2026, 13:09 UTC

1 69595C 26140D   26257.54861111  .00005672  00000+0  74253-3 0  2576
2 69595  51.9037 340.4660 0000470  80.0993 228.6993 14.79924511    17

AllMySatでKUIPER-00490をリアルタイム追跡

Download on the App Store